Tracking 35274 objects as of 10-Sep-2026
HD Live streaming from Space Station
objects crossing your sky now

STARLINK-32224

Track STARLINK-32224 now!
10-day predictions
STARLINK-32224 is classified as:


NORAD ID: 60941
Int'l Code: 2024-155T
Launch date: August 31, 2024
Source: United States (US)
Launch site: AIR FORCE WESTERN TEST RANGE (AFWTR)
Your satellite tracking list
Your tracking list is empty




NASA's NSSDC Master Catalog

Two Line Element Set (TLE):
1 60941U 24155T   26252.58076341 -.00002143  00000-0 -52360-4 0  9990
2 60941  53.1601 352.8063 0000922  70.9534 289.1569 15.34375882114547
Source of the keplerian elements: AFSPC